Theta_e
302 302 303 303 304 304 302 295 285 299 301 287 287 281 283 289 287 291 288 288 286 284 285 284 285 286 290 297 297 292 296 291 286 289 295 296 295 293 294 286 285 286 285 287
302 302 303 303 303 304 298 290 290 300 298 281 282 286 286 286 285 287 287 287 288 288 284 281 285 287 296 298 296 293 296 289 282 286 291 295 292 293 294 293 291 286 283 286
302 302 302 302 303 304 298 287 283 291 293 290 284 284 285 285 289 286 287 287 288 286 284 287 285 287 294 299 298 300 299 292 288 283 286 291 289 293 294 294 285 286 289 291
302 302 302 303 303 304 298 289 285 290 283 285 287 286 286 285 284 288 288 285 284 283 280 283 283 286 289 296 298 296 296 287 290 291 292 294 293 292 293 291 291 288 290 292
302 303 303 303 303 303 296 285 286 291 285 288 286 286 285 284 286 286 285 285 287 286 282 283 282 286 286 290 295 292 294 287 290 288 291 293 292 294 294 293 293 293 292 293
302 303 303 303 303 303 294 295 293 290 287 286 285 285 285 286 287 289 289 288 286 285 287 290 290 290 291 293 293 288 287 288 285 283 291 292 286 291 294 294 294 293 289 294
302 302 302 303 303 303 298 296 294 288 283 285 285 287 287 286 288 286 290 290 287 290 295 293 292 291 291 291 294 295 288 286 287 281 284 280 290 297 297 295 296 297 296 297
302 302 302 302 303 303 298 298 294 289 283 287 286 287 287 289 289 288 289 291 294 295 292 287 283 282 285 288 293 294 294 288 284 283 282 286 290 294 294 293 293 299 296 297
302 302 303 302 303 303 300 298 300 293 287 285 290 287 288 285 286 287 289 294 296 292 288 285 280 275 281 282 289 295 293 293 286 285 282 277 287 295 300 299 288 299 299 298
302 302 302 302 303 303 300 297 300 295 288 291 291 287 287 290 288 285 288 290 288 292 284 282 281 279 285 279 282 284 286 286 284 285 284 285 293 298 301 287 288 300 300 300
302 301 302 302 302 303 301 297 301 296 290 292 293 294 291 291 290 285 289 287 286 285 280 281 280 276 282 282 286 285 284 283 283 285 283 280 297 299 292 295 299 299 301 301
301 302 302 302 302 303 303 296 301 301 293 293 298 297 298 297 296 292 292 288 288 288 283 282 282 278 278 283 279 290 285 288 286 289 287 296 298 299 303 303 300 302 302 304
301 302 302 302 303 303 302 297 299 299 292 292 293 292 297 301 300 300 291 290 294 293 292 286 285 281 284 277 282 286 290 295 290 290 294 296 299 301 301 304 302 303 305 304
301 302 302 302 302 303 302 296 299 297 292 286 290 298 296 301 301 300 300 298 299 297 296 290 284 282 289 282 286 286 290 294 292 291 294 296 297 298 300 301 304 304 306 304
302 302 302 302 303 303 301 299 299 298 293 286 287 294 298 300 301 299 300 299 296 293 289 286 286 288 288 287 288 285 292 291 289 288 296 294 295 298 300 300 302 304 304 303
301 302 302 302 302 302 298 291 298 300 299 292 285 293 294 298 299 297 298 298 297 294 291 286 292 296 290 279 283 290 293 294 294 292 296 296 298 300 301 300 300 300 300 302
301 301 302 302 302 300 292 288 294 300 300 291 285 284 293 297 296 296 296 297 296 294 291 288 289 292 292 282 281 291 294 295 295 297 295 296 299 298 299 298 294 293 294 294
301 302 302 302 302 300 295 296 301 300 296 292 284 286 288 295 291 290 295 292 292 293 291 289 287 291 288 282 288 291 295 297 297 296 296 297 298 297 295 293 291 286 284 283
302 302 301 298 296 293 296 301 301 301 294 286 281 283 282 293 290 292 291 292 285 290 284 286 288 284 283 287 290 293 294 294 293 293 295 296 295 293 291 289 287 283 281 280
300 297 291 285 294 301 300 294 290 291 292 289 283 285 285 290 287 285 286 285 284 283 286 288 280 282 289 292 294 293 291 290 290 291 291 291 290 288 286 284 283 281 280 279
294 288 287 296 300 294 291 284 284 286 283 285 282 285 284 287 283 285 284 284 283 280 281 282 281 282 287 290 290 290 289 289 288 289 290 289 287 282 281 280 280 280 279 278
293 293 297 296 289 286 283 282 283 280 280 282 282 280 282 286 287 284 284 284 284 280 283 280 280 283 285 285 284 285 286 287 286 285 284 283 282 281 280 279 278 277 277 277
296 292 286 286 281 275 274 275 280 280 284 285 284 282 285 286 286 284 284 282 281 285 283 282 279 282 283 284 283 282 283 283 282 281 281 281 280 280 279 277 277 277 277 277
285 280 272 271 268 274 276 278 281 281 284 282 284 284 284 284 282 283 281 282 285 281 279 274 278 280 281 282 282 281 280 280 279 279 279 279 278 277 277 277 277 276 275 275
278 278 272 274 277 277 278 279 280 280 283 284 285 285 286 283 281 283 282 280 273 274 271 273 279 280 280 279 279 278 278 278 277 277 277 277 277 276 276 277 277 276 274 273
278 275 273 275 274 273 274 275 276 280 280 284 286 284 283 279 277 276 273 272 269 273 276 278 279 278 278 277 278 277 278 277 277 276 276 276 275 274 274 275 275 274 274 273
276 272 274 273 273 271 273 274 275 279 280 280 282 276 274 280 274 273 275 270 274 277 277 278 278 277 276 277 277 277 277 276 276 276 276 276 276 276 274 273 273 273 273 271
Wind_Speed
22 20 19 19 17 16 12 4 8 7 11 9 5 15 6 6 6 2 6 4 4 6 6 5 5 4 5 8 5 6 4 5 13 25 9 3 10 12 10 6 4 3 5 10
22 22 20 20 19 19 3 6 6 7 10 13 14 10 18 10 8 4 3 4 8 3 4 6 9 7 4 4 5 7 11 6 4 7 9 17 6 4 5 3 4 10 8 7
24 23 23 23 22 22 10 2 6 6 9 5 18 19 17 13 11 17 11 4 5 4 3 6 7 6 5 6 6 6 6 6 13 14 6 5 5 6 1 8 7 5 12 5
26 25 25 25 24 24 11 7 5 6 10 11 12 16 9 17 13 12 11 4 21 17 11 11 18 16 12 11 2 2 6 8 15 18 17 5 5 5 3 2 9 11 8 14
29 28 27 27 27 27 13 6 5 6 2 13 20 18 18 22 18 13 10 12 8 11 14 16 6 6 9 5 2 2 3 7 15 6 13 18 15 9 9 4 9 12 8 15
30 30 30 29 29 27 8 7 4 3 9 8 15 18 23 19 17 11 21 16 15 13 24 17 19 16 13 8 4 3 0 6 7 6 5 5 3 17 13 8 8 9 11 10
30 30 30 30 31 30 9 3 4 5 8 14 15 16 21 22 16 22 10 19 15 23 8 7 10 13 17 15 11 11 9 4 4 5 1 4 9 9 15 18 18 17 12 8
28 29 29 29 31 33 14 6 7 7 10 9 17 20 14 16 17 21 17 19 14 2 4 4 5 4 3 10 13 14 11 6 4 3 3 4 4 5 9 12 16 23 12 9
23 24 26 30 31 33 17 10 4 7 5 17 11 13 18 11 13 16 20 21 14 3 6 3 5 4 5 4 3 8 13 9 5 1 4 8 7 11 6 3 12 9 7 8
22 22 22 25 29 31 16 7 14 6 6 6 15 11 13 11 9 4 4 9 8 13 5 4 4 4 3 4 3 4 3 3 6 7 7 8 7 7 1 6 9 7 3 9
24 24 24 24 26 29 21 9 14 11 2 7 14 14 11 9 12 6 3 3 2 5 6 5 5 3 6 5 4 5 6 5 3 2 5 6 2 4 1 1 10 3 3 7
26 26 26 26 26 27 28 7 13 12 6 1 13 16 16 23 19 10 5 4 3 5 4 3 3 3 1 5 6 5 7 6 5 6 3 24 7 4 5 4 4 7 4 3
29 29 28 28 28 28 25 6 6 8 9 5 7 13 11 12 14 7 7 3 4 3 4 4 3 4 5 4 5 6 4 5 4 4 9 21 21 5 3 4 5 9 8 4
28 28 29 30 30 30 25 12 5 8 2 2 3 7 17 16 8 9 6 6 2 3 3 2 2 2 4 5 6 6 5 4 6 4 5 9 10 7 8 8 8 10 10 4
28 27 28 30 31 30 18 10 6 6 4 3 4 9 18 16 15 12 6 7 4 3 1 2 2 2 2 2 1 4 5 5 4 6 6 4 8 7 4 6 7 8 5 3
29 29 29 29 30 33 9 6 8 10 6 4 3 2 15 13 16 10 6 4 4 4 4 3 1 2 2 1 7 7 7 4 2 3 8 13 14 5 1 6 6 6 6 6
31 31 30 28 29 16 7 6 7 17 8 2 1 1 4 17 8 8 4 2 3 3 3 3 4 3 3 3 5 4 4 4 5 8 3 8 5 4 1 11 15 12 12 15
32 31 27 25 31 15 2 1 24 19 5 3 4 3 4 5 4 6 2 4 2 0 2 1 3 1 2 6 5 7 4 4 7 5 7 12 3 6 8 10 9 14 12 12
32 33 34 19 4 4 2 19 21 3 3 3 1 3 4 3 3 3 3 2 3 1 3 4 5 4 8 7 8 6 4 3 6 11 10 5 8 9 8 10 12 13 13 13
36 15 5 4 3 36 22 5 3 2 0 1 1 0 3 4 2 2 3 2 3 2 5 0 3 6 6 6 5 4 4 2 2 0 4 5 6 8 7 11 10 13 13 15
4 4 4 8 8 5 3 3 2 4 4 4 4 3 6 2 4 4 0 3 4 4 5 7 4 4 3 6 6 5 4 4 3 0 3 9 13 13 13 13 14 13 14 15
8 8 6 4 5 4 4 3 2 3 5 1 4 2 3 2 3 5 1 3 2 6 4 3 4 2 5 5 5 5 4 5 11 10 12 15 16 14 15 15 15 14 15 15
4 4 4 1 3 6 4 3 2 3 2 3 3 4 3 2 4 4 2 4 5 2 4 3 2 3 5 5 4 5 8 11 14 14 15 17 19 16 16 18 15 16 16 15
5 5 8 6 5 4 3 3 3 2 2 5 6 4 3 2 3 3 4 4 2 4 4 1 2 5 4 5 6 6 9 12 14 11 15 14 19 19 18 16 14 17 17 15
6 6 7 5 3 3 4 4 3 5 3 2 3 4 3 2 3 0 2 1 2 2 2 2 3 6 6 6 7 9 9 9 13 10 14 14 18 19 20 18 16 17 18 17
6 9 4 4 4 6 5 7 4 6 5 2 2 3 3 3 2 4 4 2 1 2 2 2 4 6 7 8 9 9 9 11 12 13 14 16 17 19 20 19 17 16 17 16
6 4 5 4 2 3 4 5 6 6 3 3 3 5 4 2 4 3 4 3 2 3 4 4 6 7 8 9 10 10 12 13 13 15 16 17 17 18 20 21 17 18 17 16
Wind_Direction
250 244 240 234 235 231 238 228 225 160 141 202 205 227 203 262 260 30 230 235 246 263 305 289 294 247 218 38 16 350 295 277 231 243 260 250 216 209 178 178 209 226 189 236
246 241 236 232 230 221 188 224 212 176 167 213 219 225 230 233 254 215 218 246 200 183 241 253 238 267 211 60 44 43 356 322 264 286 260 254 202 208 198 141 127 195 184 250
242 238 233 228 227 220 207 182 193 191 205 211 210 216 222 210 213 242 255 263 319 326 310 286 280 300 313 359 335 359 11 236 225 242 272 167 183 186 212 191 209 164 225 206
239 236 233 229 224 218 203 187 219 198 200 205 210 210 219 211 215 202 200 249 239 247 260 257 256 271 269 242 134 34 13 269 259 242 240 196 183 179 206 234 252 209 191 221
239 234 229 224 219 215 217 194 191 187 190 202 200 206 215 221 214 211 199 217 208 212 223 222 252 254 278 268 93 77 7 285 306 250 219 221 223 215 225 261 308 248 243 229
239 234 228 221 218 208 213 203 211 195 194 189 199 208 217 223 222 235 229 227 241 252 243 235 241 252 265 261 273 71 50 314 321 264 177 116 333 232 240 238 261 273 226 233
237 231 226 220 213 204 212 173 153 200 214 208 209 207 209 219 206 226 234 219 221 239 286 276 255 253 254 255 210 184 179 225 248 264 94 180 243 180 231 244 250 254 267 241
234 229 224 218 213 210 212 193 196 187 230 211 214 209 207 209 224 233 223 240 241 357 318 314 298 265 234 234 226 216 185 142 272 261 213 297 250 215 193 210 250 245 225 241
232 228 222 215 210 209 210 206 193 199 197 216 195 205 198 199 213 236 245 240 245 291 281 258 230 224 214 253 195 188 187 194 212 273 272 210 234 230 171 61 276 250 177 249
231 225 219 214 209 208 205 196 197 191 219 196 186 188 191 198 192 242 224 226 208 190 208 227 227 229 243 220 244 192 161 135 219 235 234 286 257 299 212 183 248 267 226 240
229 223 219 213 208 207 201 201 189 203 176 184 197 198 171 181 203 197 192 96 256 145 180 194 202 203 214 211 216 203 182 168 214 95 230 252 264 33 167 258 259 193 268 275
228 223 215 210 206 201 198 212 186 190 218 212 202 218 202 192 190 199 203 221 143 178 164 209 150 215 71 190 239 209 224 189 180 156 273 290 288 242 213 255 265 326 319 281
229 222 216 209 201 200 194 194 159 175 196 203 197 213 215 216 212 177 175 231 233 191 185 182 219 199 141 160 230 240 280 167 205 125 254 250 252 238 239 252 307 313 298 305
223 217 210 204 199 195 191 187 164 186 135 224 218 181 211 213 199 203 182 180 225 160 150 187 221 182 160 185 212 188 210 187 204 255 287 290 282 251 237 229 181 259 296 305
214 205 198 197 192 189 181 175 172 159 149 207 190 194 214 202 201 195 172 188 171 175 207 168 209 278 284 204 146 217 187 211 189 229 251 229 267 270 305 223 222 220 240 245
205 195 187 187 188 176 157 144 191 178 186 311 192 204 183 193 194 193 193 183 187 167 150 217 192 284 174 260 251 215 221 211 155 297 316 295 276 282 34 85 27 33 45 351
184 179 174 175 175 162 163 179 153 159 159 215 293 188 182 191 174 197 184 158 176 142 193 216 183 203 199 204 208 208 275 288 307 275 311 298 238 256 62 119 94 45 57 61
150 153 152 149 157 123 149 17 151 138 146 114 252 175 109 142 152 177 146 195 96 183 191 83 176 216 188 253 223 219 207 297 295 320 296 235 210 82 64 76 77 94 67 67
128 123 118 118 101 124 93 129 131 92 136 172 227 131 126 114 106 148 101 146 164 163 167 225 147 210 226 216 205 200 162 209 291 311 285 104 94 91 91 103 91 93 89 83
102 102 83 109 121 110 112 72 128 89 270 110 201 203 142 114 139 100 114 113 138 174 233 123 184 248 249 216 197 127 129 124 305 85 200 122 107 97 76 76 84 99 104 102
48 65 73 98 95 78 77 112 195 132 158 206 165 147 130 310 109 116 174 147 146 205 245 177 228 252 12 11 56 32 62 113 77 233 34 75 110 121 112 98 92 96 98 98
87 105 83 64 43 54 95 145 151 224 170 66 100 128 119 50 75 96 213 142 144 237 144 147 242 91 16 24 19 24 41 106 89 84 88 94 97 103 106 103 98 99 101 101
39 59 77 324 2 65 92 178 163 120 96 131 122 91 99 92 60 78 134 165 223 143 211 210 59 34 16 14 38 40 67 75 76 82 87 91 94 96 100 102 100 100 96 99
61 59 46 70 8 26 13 343 30 29 22 96 108 97 87 94 94 142 166 223 198 209 230 100 20 5 17 49 58 66 60 74 83 83 93 101 101 96 91 90 97 100 95 94
55 34 47 49 34 1 346 326 33 1 326 42 91 69 85 91 115 168 255 150 87 49 304 337 11 48 50 50 66 75 78 78 87 84 91 91 94 94 92 88 88 88 89 88
59 41 21 348 25 360 7 3 14 2 340 314 31 124 140 71 65 62 20 44 339 32 29 40 58 63 62 64 70 77 86 89 90 91 93 92 90 92 92 87 85 85 88 87
54 49 6 360 27 10 347 339 344 316 299 61 47 56 44 44 72 72 19 32 1 50 65 60 73 81 79 77 78 81 85 90 95 96 95 95 98 96 90 89 87 87 84 83